Location: Fontevrault
(47.1823°N, 0.0493°E)
Time: 03:44:52
(UTC+00:00)

Uosat 12 SS-18 rocket - Pass Details

Date: 28 October 2021
Orbit: 579 x 1405 km, 64.6° (Epoch: 01 December)

Event Time Altitude Azimuth Distance (km) Brightness Sun altitude
Rises 19:01:48 0° 304° (NW) 3,509 8.9 -23.0°
Reaches altitude 10° 19:05:04 10° 323° (NW) 2,725 7.9 -23.6°
Maximum altitude 19:09:25 18° 6° (N) 2,370 7.0 -24.3°
Enters shadow 19:12:14 15° 32° (NNE) 2,692 7.0 -24.8°
